When you browse on this site, cookies collect data to enhance your experience and personalize the content and advertising you see.
Visit our Privacy Policy to learn more. By continuing to use the site, you agree to this use of cookies and data.
  • In Netherlands
  • List of Countries
  • For 7 days
  • Water Temperature
  • Weather Map
  • Weather Widgets
  • user-avatar
    Login

    Hourly Weather Manchester

    Today, 1 June, Monday

    Time Temperature Precipitation Wind Pressure Humidity
    00:00 +12°C° 0 mm 3 mps 765 mmHg 68%
    01:00 +11°C° 0 mm 3 mps 765 mmHg 70%
    02:00 +12°C° 0 mm 2 mps 764 mmHg 72%
    03:00 +10°C° 0 mm 2 mps 764 mmHg 74%
    04:00 +12°C° 0 mm 2 mps 764 mmHg 73%
    05:00 +13°C° 0 mm 2 mps 764 mmHg 72%
    06:00 +12°C° 0 mm 3 mps 765 mmHg 71%
    07:00 +14°C° 0 mm 3 mps 765 mmHg 67%
    08:00 +15°C° 0 mm 4 mps 765 mmHg 63%
    09:00 +18°C° 0 mm 4 mps 765 mmHg 59%
    10:00 +19°C° 0 mm 4 mps 764 mmHg 56%
    11:00 +20°C° 0 mm 4 mps 764 mmHg 53%
    12:00 +21°C° 0 mm 4 mps 764 mmHg 50%
    13:00 +21°C° 0 mm 4 mps 764 mmHg 50%
    14:00 +22°C° 0 mm 4 mps 764 mmHg 50%
    15:00 +22°C° 0 mm 4 mps 764 mmHg 50%
    16:00 +21°C° 0 mm 4 mps 764 mmHg 54%
    17:00 +21°C° 0 mm 4 mps 763 mmHg 57%
    18:00 +20°C° 0 mm 4 mps 763 mmHg 61%
    19:00 +18°C° 0 mm 4 mps 763 mmHg 61%
    20:00 +15°C° 0 mm 4 mps 764 mmHg 61%
    21:00 +14°C° 0 mm 4 mps 764 mmHg 60%
    22:00 +13°C° 0 mm 3 mps 764 mmHg 65%
    23:00 +13°C° 0 mm 2 mps 764 mmHg 70%

    Tomorrow, 2 June, Tuesday

    Time Temperature Precipitation Wind Pressure Humidity
    00:00 +12°C° 0 mm 2 mps 764 mmHg 75%
    01:00 +12°C° 0 mm 2 mps 764 mmHg 78%
    02:00 +11°C° 0 mm 1 mps 763 mmHg 80%
    03:00 +11°C° 0 mm 1 mps 763 mmHg 82%
    04:00 +12°C° 0 mm 1 mps 763 mmHg 80%
    05:00 +13°C° 0 mm 1 mps 763 mmHg 77%
    06:00 +13°C° 0 mm 1 mps 762 mmHg 75%
    07:00 +15°C° 0 mm 1 mps 762 mmHg 69%
    08:00 +16°C° 0 mm 1 mps 762 mmHg 62%
    09:00 +19°C° 0 mm 1 mps 762 mmHg 56%
    10:00 +20°C° 0 mm 1 mps 761 mmHg 51%
    11:00 +22°C° 0 mm 1 mps 761 mmHg 47%
    12:00 +23°C° 0 mm 1 mps 760 mmHg 42%
    13:00 +23°C° 0 mm 2 mps 760 mmHg 42%
    14:00 +23°C° 0 mm 2 mps 759 mmHg 42%
    15:00 +24°C° 0 mm 2 mps 759 mmHg 42%
    16:00 +22°C° 0 mm 3 mps 758 mmHg 47%
    17:00 +21°C° 0 mm 3 mps 758 mmHg 53%
    18:00 +20°C° 0 mm 4 mps 757 mmHg 58%
    19:00 +18°C° 0 mm 3 mps 757 mmHg 63%
    20:00 +17°C° 0 mm 2 mps 757 mmHg 68%
    21:00 +15°C° 0 mm 2 mps 757 mmHg 73%
    22:00 +15°C° 0 mm 1 mps 756 mmHg 75%
    23:00 +14°C° 0 mm 1 mps 756 mmHg 77%

    Day after tomorrow, 3 June, Wednesday

    Time Temperature Precipitation Wind Pressure Humidity
    00:00 +14°C° 0 mm 1 mps 755 mmHg 79%
    01:00 +13°C° 0 mm 1 mps 755 mmHg 81%
    02:00 +13°C° 0 mm 1 mps 754 mmHg 83%
    03:00 +13°C° 0 mm 1 mps 754 mmHg 85%
    04:00 +13°C° 0.1 mm 1 mps 754 mmHg 85%
    05:00 +14°C° 0.1 mm 2 mps 754 mmHg 84%
    06:00 +14°C° 0.1 mm 2 mps 754 mmHg 84%
    07:00 +12°C° 0.7 mm 3 mps 754 mmHg 83%
    08:00 +12°C° 0.7 mm 4 mps 754 mmHg 83%
    09:00 +12°C° 0.7 mm 4 mps 754 mmHg 82%
    10:00 +13°C° 0.1 mm 4 mps 754 mmHg 80%
    11:00 +13°C° 0.1 mm 4 mps 754 mmHg 77%
    12:00 +14°C° 0.1 mm 4 mps 754 mmHg 74%
    13:00 +14°C° 0 mm 4 mps 754 mmHg 71%
    14:00 +15°C° 0 mm 5 mps 754 mmHg 68%
    15:00 +16°C° 0 mm 5 mps 754 mmHg 65%
    16:00 +15°C° 0 mm 5 mps 754 mmHg 67%
    17:00 +14°C° 0 mm 5 mps 754 mmHg 69%
    18:00 +14°C° 0 mm 5 mps 754 mmHg 71%
    19:00 +13°C° 0 mm 5 mps 754 mmHg 73%
    20:00 +12°C° 0 mm 4 mps 754 mmHg 75%
    21:00 +11°C° 0 mm 3 mps 754 mmHg 76%
    22:00 +10°C° 0 mm 3 mps 754 mmHg 78%
    23:00 +9°C° 0 mm 2 mps 753 mmHg 80%

    4 June, Thursday

    Time Temperature Precipitation Wind Pressure Humidity
    00:00 +10°C° 0 mm 1 mps 753 mmHg 82%
    01:00 +9°C° 0 mm 1 mps 753 mmHg 82%
    02:00 +9°C° 0 mm 1 mps 752 mmHg 82%
    03:00 +9°C° 0 mm 1 mps 752 mmHg 82%
    04:00 +9°C° 0 mm 1 mps 752 mmHg 79%
    05:00 +10°C° 0 mm 1 mps 751 mmHg 76%
    06:00 +11°C° 0 mm 1 mps 751 mmHg 73%
    07:00 +12°C° 0 mm 2 mps 751 mmHg 71%
    08:00 +12°C° 0 mm 4 mps 751 mmHg 69%
    09:00 +13°C° 0 mm 5 mps 751 mmHg 67%
    10:00 +13°C° 0 mm 5 mps 750 mmHg 63%
    11:00 +14°C° 0 mm 6 mps 750 mmHg 59%
    12:00 +15°C° 0 mm 6 mps 750 mmHg 55%
    13:00 +15°C° 0 mm 6 mps 749 mmHg 57%
    14:00 +15°C° 0 mm 6 mps 749 mmHg 59%
    15:00 +15°C° 0 mm 7 mps 748 mmHg 61%
    16:00 +14°C° 0 mm 6 mps 748 mmHg 63%
    17:00 +14°C° 0 mm 6 mps 748 mmHg 66%
    18:00 +13°C° 0 mm 6 mps 748 mmHg 69%
    19:00 +13°C° 0 mm 6 mps 747 mmHg 72%
    20:00 +12°C° 0 mm 5 mps 747 mmHg 76%
    21:00 +12°C° 0 mm 5 mps 747 mmHg 79%
    22:00 +12°C° 0 mm 5 mps 746 mmHg 80%
    23:00 +10°C° 0 mm 6 mps 745 mmHg 80%

    5 June, Friday

    Time Temperature Precipitation Wind Pressure Humidity
    00:00 +10°C° 0 mm 6 mps 745 mmHg 80%
    01:00 +10°C° 0.2 mm 6 mps 744 mmHg 81%
    02:00 +11°C° 0.2 mm 7 mps 743 mmHg 82%
    03:00 +11°C° 0.2 mm 7 mps 742 mmHg 83%
    04:00 +11°C° 0.2 mm 8 mps 741 mmHg 82%
    05:00 +11°C° 0.2 mm 8 mps 741 mmHg 81%
    06:00 +11°C° 0.2 mm 9 mps 740 mmHg 80%
    07:00 +11°C° 0.2 mm 9 mps 740 mmHg 77%
    08:00 +11°C° 0.2 mm 9 mps 740 mmHg 74%
    09:00 +11°C° 0.2 mm 9 mps 740 mmHg 70%
    10:00 +11°C° 0.1 mm 9 mps 740 mmHg 67%
    11:00 +11°C° 0.1 mm 9 mps 741 mmHg 64%
    12:00 +12°C° 0.1 mm 9 mps 741 mmHg 60%
    13:00 +12°C° 0.1 mm 9 mps 741 mmHg 59%
    14:00 +12°C° 0.1 mm 8 mps 742 mmHg 59%
    15:00 +13°C° 0.1 mm 8 mps 742 mmHg 58%
    16:00 +12°C° 0.1 mm 8 mps 742 mmHg 57%
    17:00 +12°C° 0.1 mm 8 mps 743 mmHg 57%
    18:00 +11°C° 0.1 mm 8 mps 743 mmHg 56%
    19:00 +10°C° 0 mm 7 mps 743 mmHg 59%
    20:00 +9°C° 0 mm 7 mps 744 mmHg 62%
    21:00 +8°C° 0 mm 6 mps 744 mmHg 66%
    22:00 +8°C° 0 mm 6 mps 745 mmHg 66%
    23:00 +7°C° 0 mm 6 mps 745 mmHg 67%

    6 June, Saturday

    Time Temperature Precipitation Wind Pressure Humidity
    00:00 +7°C° 0 mm 5 mps 745 mmHg 68%
    01:00 +7°C° 0.1 mm 5 mps 745 mmHg 71%
    02:00 +6°C° 0.1 mm 5 mps 745 mmHg 74%
    03:00 +6°C° 0.1 mm 5 mps 746 mmHg 76%
    04:00 +5°C° 0.2 mm 6 mps 746 mmHg 77%
    05:00 +5°C° 0.2 mm 6 mps 746 mmHg 77%
    06:00 +5°C° 0.2 mm 6 mps 746 mmHg 78%
    07:00 +6°C° 0.2 mm 7 mps 746 mmHg 74%
    08:00 +7°C° 0.2 mm 8 mps 746 mmHg 71%
    09:00 +8°C° 0.2 mm 9 mps 746 mmHg 67%
    10:00 +8°C° 0.2 mm 9 mps 746 mmHg 66%
    11:00 +8°C° 0.2 mm 9 mps 746 mmHg 66%
    12:00 +8°C° 0.2 mm 9 mps 746 mmHg 65%
    13:00 +10°C° 0.1 mm 9 mps 746 mmHg 62%
    14:00 +11°C° 0.1 mm 9 mps 746 mmHg 58%
    15:00 +11°C° 0.1 mm 10 mps 746 mmHg 54%
    16:00 +11°C° 0 mm 9 mps 746 mmHg 55%
    17:00 +11°C° 0 mm 9 mps 746 mmHg 56%
    18:00 +11°C° 0 mm 8 mps 747 mmHg 57%
    19:00 +10°C° 0 mm 8 mps 747 mmHg 59%
    20:00 +10°C° 0 mm 7 mps 747 mmHg 62%
    21:00 +9°C° 0 mm 7 mps 747 mmHg 64%
    22:00 +9°C° 0.5 mm 7 mps 747 mmHg 72%
    23:00 +9°C° 0.5 mm 8 mps 747 mmHg 79%
    Show more